This demonstration page uses our WeatherBlox Daily Observations layout. Learn more.

Hourly Observations for August 5, 2015

Temp ( °F °C ) Dew Point ( °F °C ) Humidity (%) Winds ( mph kmh ) Pressure ( in mb ) Visibility ( mi km ) Precip ( " mm )
12:15 am 00:15 Partly Cloudy with Light Rain 63 17 63 17 100 100 Calm 29.94 1014 5 8.04672 0.01 0.254
12:35 am 00:35 Partly Cloudy with Light Rain 63 17 61 16 94 94 Calm 29.94 1014 5 8.04672 0.04 1.016
12:55 am 00:55 Partly Cloudy 63 17 61 16 94 94 E 3 6 29.94 1014 7 11.265408 0.04 1.016
1:15 am 01:15 Cloudy 63 17 61 16 94 94 ESE 5 7 29.94 1014 7 11.265408 0 0
1:35 am 01:35 Cloudy 63 17 61 16 94 94 Calm 29.94 1014 10 16.09344 0 0
1:55 am 01:55 Mostly Cloudy 63 17 63 17 100 100 Calm 29.94 1014 7 11.265408 0 0
2:15 am 02:15 Mostly Cloudy 63 17 63 17 100 100 Calm 29.94 1014 7 11.265408 0 0
2:35 am 02:35 Mostly Cloudy 63 17 61 16 94 94 N 3 6 29.94 1014 7 11.265408 0 0
2:55 am 02:55 Partly Cloudy with Mist and Fog 63 17 61 16 94 94 N 5 7 29.94 1014 5 8.04672 0 0
3:15 am 03:15 Clear with Mist and Fog 63 17 61 16 94 94 Calm 29.94 1014 5 8.04672 0 0
3:35 am 03:35 Partly Cloudy with Mist and Fog 63 17 61 16 94 94 Calm 29.94 1014 4 6.437376 0 0
3:55 am 03:55 Partly Cloudy with Mist and Fog 61 16 59 15 94 94 N 3 6 29.94 1014 3 4.828032 0 0
4:15 am 04:15 Partly Cloudy with Mist and Fog 61 16 59 15 94 94 NW 3 6 29.94 1014 4 6.437376 0 0
4:35 am 04:35 Clear with Mist and Fog 61 16 59 15 94 94 Calm 29.94 1014 4 6.437376 0 0
4:55 am 04:55 Clear with Mist and Fog 61 16 59 15 94 94 Calm 29.94 1014 4 6.437376 0 0
5:15 am 05:15 Clear with Mist and Fog 61 16 59 15 94 94 NNW 5 7 29.94 1014 4 6.437376 0 0
5:35 am 05:35 Clear with Mist and Fog 61 16 59 15 94 94 N 3 6 29.94 1014 4 6.437376 0 0
5:55 am 05:55 Mostly Cloudy with Mist and Fog 61 16 59 15 94 94 Calm 29.94 1014 4 6.437376 0 0
6:15 am 06:15 Partly Cloudy with Mist and Fog 61 16 59 15 94 94 N 3 6 29.94 1014 3 4.828032 0 0
6:35 am 06:35 Partly Cloudy with Mist and Fog 59 15 59 15 100 100 NNE 3 6 29.97 1015 2.5 4.02336 0 0
6:55 am 06:55 Cloudy with Fog 59 15 57 14 94 94 Calm 29.97 1015 0 0 0 0
7:15 am 07:15 Cloudy with Fog 59 15 59 15 100 100 Calm 30 1016 0 0 0 0
7:35 am 07:35 Cloudy with Fog 61 16 59 15 94 94 Calm 30 1016 0.25 0.402336 0 0
7:55 am 07:55 Partly Cloudy with Mist and Fog 61 16 61 16 100 100 Calm 30 1016 2.5 4.02336 0 0
8:15 am 08:15 Cloudy with Mist and Fog 63 17 61 16 94 94 Calm 29.97 1015 1 1.609344 0 0
8:35 am 08:35 Cloudy with Fog 63 17 63 17 100 100 Calm 29.97 1015 0.5 0.804672 0 0
8:55 am 08:55 Cloudy with Mist and Fog 63 17 63 17 100 100 Calm 29.97 1015 1.5 2.414016 0 0
9:15 am 09:15 Cloudy with Mist and Fog 64 18 63 17 94 94 Calm 29.97 1015 4 6.437376 0 0
9:35 am 09:35 Cloudy with Mist and Fog 64 18 63 17 94 94 Calm 29.97 1015 5 8.04672 0 0
9:55 am 09:55 Mostly Cloudy 66 19 64 18 94 94 Calm 29.97 1015 7 11.265408 0 0
10:15 am 10:15 Sunny 66 19 64 18 94 94 SE 3 6 29.97 1015 10 16.09344 0 0
10:35 am 10:35 Sunny 70 21 64 18 83 83 Calm 29.94 1014 10 16.09344 0 0
10:55 am 10:55 Sunny 70 21 63 17 78 78 Calm 29.94 1014 10 16.09344 0 0
11:15 am 11:15 Partly Cloudy 72 22 63 17 73 73 ESE 3 6 29.94 1014 10 16.09344 0 0
11:35 am 11:35 Sunny 73 23 63 17 69 69 Calm 29.94 1014 10 16.09344 0 0
11:55 am 11:55 Partly Cloudy 73 23 63 17 69 69 Calm 29.94 1014 10 16.09344 0 0
12:15 pm 12:15 Partly Cloudy 73 23 63 17 69 69 Calm 29.94 1014 10 16.09344 0 0
12:35 pm 12:35 Sunny 75 24 63 17 65 65 Calm 29.91 1013 10 16.09344 0 0
12:55 pm 12:55 Partly Cloudy 77 25 63 17 61 61 Calm 29.91 1013 10 16.09344 0 0
1:15 pm 13:15 Sunny 77 25 63 17 61 61 E 6 9 29.91 1013 10 16.09344 0 0
1:35 pm 13:35 Sunny 77 25 63 17 61 61 SE 9 15 29.91 1013 10 16.09344 0 0
1:55 pm 13:55 Partly Cloudy 77 25 61 16 57 57 ESE 3 6 29.91 1013 10 16.09344 0 0
2:15 pm 14:15 Partly Cloudy 79 26 63 17 58 58 ESE 6 9 29.88 1012 10 16.09344 0 0
2:35 pm 14:35 Partly Cloudy 79 26 63 17 58 58 E 3 6 29.88 1012 10 16.09344 0 0
2:55 pm 14:55 Partly Cloudy 79 26 63 17 58 58 ESE 6 9 29.88 1012 10 16.09344 0 0
3:15 pm 15:15 Sunny 79 26 63 17 58 58 ESE 6 9 29.88 1012 10 16.09344 0 0
3:35 pm 15:35 Partly Cloudy 81 27 63 17 54 54 E 12 19 29.85 1011 10 16.09344 0 0
3:55 pm 15:55 Sunny 81 27 63 17 54 54 E 13 20 29.85 1011 10 16.09344 0 0
4:15 pm 16:15 Sunny 81 27 63 17 54 54 E 7 11 29.85 1011 10 16.09344 0 0
4:35 pm 16:35 Partly Cloudy 81 27 63 17 54 54 SE 7 11 29.85 1011 10 16.09344 0 0
4:55 pm 16:55 Partly Cloudy 81 27 63 17 54 54 SE 8 13 29.85 1011 10 16.09344 0 0
5:15 pm 17:15 Sunny 81 27 64 18 58 58 ESE 9 15 29.85 1011 10 16.09344 0 0
5:35 pm 17:35 Sunny 81 27 63 17 54 54 E 9 15 29.85 1011 10 16.09344 0 0
5:55 pm 17:55 Sunny 81 27 64 18 58 58 ESE 7 11 29.85 1011 10 16.09344 0 0
6:15 pm 18:15 Sunny 81 27 64 18 58 58 ESE 9 15 29.83 1010 10 16.09344 0 0
6:35 pm 18:35 Sunny 81 27 64 18 58 58 SE 8 13 29.83 1010 10 16.09344 0 0
6:55 pm 18:55 Sunny 81 27 63 17 54 54 SSE 8 13 29.83 1010 10 16.09344 0 0
7:15 pm 19:15 Sunny 81 27 63 17 54 54 SE 6 9 29.83 1010 10 16.09344 0 0
7:35 pm 19:35 Sunny 77 25 64 18 65 65 ESE 7 11 29.85 1011 10 16.09344 0 0
7:55 pm 19:55 Sunny 75 24 66 19 74 74 ESE 6 9 29.85 1011 10 16.09344 0 0
8:15 pm 20:15 Sunny 73 23 66 19 78 78 ESE 8 13 29.85 1011 10 16.09344 0 0
8:35 pm 20:35 Sunny 73 23 66 19 78 78 SE 7 11 29.85 1011 10 16.09344 0 0
8:55 pm 20:55 Clear 72 22 66 19 83 83 SE 6 9 29.88 1012 7 11.265408 0 0
9:15 pm 21:15 Clear 72 22 66 19 83 83 SE 6 9 29.88 1012 10 16.09344 0 0
9:35 pm 21:35 Clear 70 21 66 19 88 88 SE 7 11 29.88 1012 10 16.09344 0 0
9:55 pm 21:55 Clear 70 21 66 19 88 88 SE 7 11 29.88 1012 10 16.09344 0 0
10:15 pm 22:15 Clear 70 21 66 19 88 88 SSE 5 7 29.88 1012 10 16.09344 0 0
10:35 pm 22:35 Clear 68 20 64 18 88 88 SSE 7 11 29.88 1012 10 16.09344 0 0
10:55 pm 22:55 Clear 68 20 66 19 94 94 SSE 6 9 29.88 1012 10 16.09344 0 0
11:15 pm 23:15 Clear 68 20 66 19 94 94 SSE 7 11 29.88 1012 10 16.09344 0 0
11:35 pm 23:35 Clear 68 20 66 19 94 94 SSE 6 9 29.88 1012 10 16.09344 0 0
11:55 pm 23:55 Clear 68 20 66 19 94 94 SSE 6 9 29.88 1012 10 16.09344 0 0

Powered by AerisWeather